sat.trackr.live / text

‹ back to catalog

STARLINK-6362

NORAD 57350 · 2023-099Y

PAYLOAD ACTIVE UNKNOWN

§ Identity

Operator
Country
US
Launch date
2023-07-16
Launch site
AFETR
Launch vehicle
Mass (kg)
RCS (m²)

Purposes: comms

External: N2YO · Heavens-Above · Gunter

§ Orbital elements

Epoch: 2026-09-20T21:49:26.010912Z

Period
94.27 min
Inclination
43.0011°
Eccentricity
0.0000831
Mean motion
15.27574782 rev/d
Perigee alt
482.5 km
Apogee alt
483.6 km
Semi-major
6,861.2 km
B*
-2.4568e-6
RAAN
219.3560°
Arg perigee
256.8985°
Mean anomaly
103.1774°
Rev number
17,604

§ Raw data

STARLINK-63621 57350U 23099Y   26263.90932883 -.00000329  00000+0 -24568-5 0  99992 57350  43.0011 219.3560 0000831 256.8985 103.1774 15.27574782176041

JSON: /api/v1/satellites/57350 · /tle

For live sub-satellite position, see the globe view (requires WebGL).

§ Visibility from observer

Set your observer location to see the next 7 days of passes ≥ 10°. The values pass through the URL so the page stays shareable.

No JS? Fill the form by hand. The geolocation button needs JavaScript.